Regional Weather Roundup
Issued by NWS

Home | Current Version | Previous Version | Text Only | Print | Product List | Glossary On
Versions: 1 2 3 4 5 6 7 8 9 10 11 12 13 14 15 16 17 18 19 20 21 22 23 24 25 26 27 28 29 30 31 32 33 34 35 36 37 38 39 40 41 42 43 44 45 46 47 48 49 50
000
ASUS44 KJAN 311610
RWRMS

MISSISSIPPI HOURLY WEATHER ROUNDUP
NATIONAL WEATHER SERVICE JACKSON MS
1100 AM CDT THU JUL 31 2014

NOTE: "FAIR: INDICATES FEW OR NO CLOUDS BELOW 12,000 FEET WITH NO
SIGNIFICANT WEATHER AND/OR OBSTRUCTIONS TO VISIBILITY.

MSZ001>002-007>008-010>013-018>021-025>028-034>036-311700-
NORTHWEST MISSISSIPPI

CITY           SKY/WX    TMP DP  RH WIND       PRES   REMARKS
CLARKSDALE     CLOUDY    72  68  88 NE5       30.11R
CLEVELAND      FAIR      75  67  76 E7        30.08S
GREENWOOD      CLOUDY    74  65  73 CALM      30.09R
GREENVILLE     CLOUDY    74  67  78 CALM      30.08R
GRENADA        FAIR      75  63  64 E5        30.09F
OLIVE BRANCH   PTSUNNY   73  70  88 CALM      30.12R
OXFORD         FAIR      72  64  78 NE3       30.12S
TUNICA         CLOUDY    72  64  78 N3        30.12R
$$

MSZ003>006-009-014>017-022>024-029>033-037>039-311700-
NORTHEAST MISSISSIPPI

CITY           SKY/WX    TMP DP  RH WIND       PRES   REMARKS
BELMONT        FAIR      75  65  70 NE3       30.11R
COLUMBUS AFB   CLOUDY    76  63  62 NE2       30.09S
CORINTH        PTSUNNY   75  63  64 CALM      30.10S
GOLDN TRIANGLE MOSUNNY   75  63  64 CALM      30.10R
STARKVILLE     PTSUNNY   75  64  69 CALM      30.09R
TUPELO         CLOUDY    78  62  57 CALM      30.09S
$$

MSZ040-058-311700-
CENTRAL MISSISSIPPI

CITY           SKY/WX    TMP DP  RH WIND       PRES   REMARKS
JACKSON INTL   CLOUDY    75  64  68 NE5       30.08F
JACKSON HAWKNS CLOUDY    76  62  62 CALM      30.09S
MERIDIAN KEY   PTSUNNY   80  59  48 CALM      30.08S
MERIDIAN NAS   PTSUNNY   79  59  50 S3        30.08S
RAYMOND        LGT RAIN  73  68  83 CALM      30.09S
VICKSBURG      CLOUDY    77  65  66 NE6       30.08R
$$

MSZ059>079-311700-
SOUTH MISSISSIPPI

CITY           SKY/WX    TMP DP  RH WIND       PRES   REMARKS
BROOKHAVEN     DRIZZLE   72  66  83 CALM      30.11S
COLUMBIA       FAIR      77  66  69 CALM      30.07S
HATTIESBURG    PTSUNNY   80  65  59 N5        30.08S
MCCOMB         CLOUDY    76  63  64 NE3       30.08S
NATCHEZ        CLOUDY    73  64  73 E6        30.08S
PINE BELT      PTSUNNY   81  63  54 CALM      30.09S
$$

MSZ080>082-311700-
COASTAL MISSISSIPPI

CITY           SKY/WX    TMP DP  RH WIND       PRES   REMARKS
BAY ST LOUIS   MOSUNNY  N/A N/A N/A E5        30.05F
BILOXI         MOSUNNY   83  62  49 N6        30.05S
PASCAGOULA     PTSUNNY   83  60  45 CALM      30.05S
GULFPORT       MOSUNNY   86  63  45 N7        30.04F
$$



USA.gov is the U.S. government's official web portal to all federal, state and local government web resources and services.